This is the latest recevied weather packets stored in our database for station/object WP3XM. If no packets are shown the sender has not sent any weather packets the latest 10 day(s).
| Time | Temp. | Humidity | Pressure | Rain* | Wind** | Luminosity | Snow |
|---|---|---|---|---|---|---|---|
| 1777674423 | 27.78° C | 78% | 1015 hPa | 0 mm | - | 9 W/m² | - |
| 1777674120 | 27.78° C | 78% | 1014.7 hPa | 0 mm | - | 10 W/m² | - |
| 1777673816 | 27.78° C | 78% | 1014.7 hPa | 0 mm | - | 11 W/m² | - |
| 1777673513 | 27.78° C | 78% | 1015 hPa | 0 mm | - | 13 W/m² | - |
| 1777673211 | 27.78° C | 78% | 1014.9 hPa | 0 mm | - | 19 W/m² | - |
| 1777672908 | 28.33° C | 76% | 1014.7 hPa | 0 mm | - | 27 W/m² | - |
| 1777672605 | 28.33° C | 76% | 1014.8 hPa | 0 mm | - | 35 W/m² | - |
| 1777672300 | 28.33° C | 76% | 1014.6 hPa | 0 mm | - | 44 W/m² | - |
| 1777671995 | 28.89° C | 75% | 1014.7 hPa | 0 mm | - | 120 W/m² | - |
| 1777671691 | 28.33° C | 76% | 1014.8 hPa | 0 mm | - | 90 W/m² | - |
| 1777671388 | 28.33° C | 77% | 1014.8 hPa | 0 mm | - | 64 W/m² | - |
| 1777671084 | 28.89° C | 75% | 1014.6 hPa | 0 mm | - | 86 W/m² | - |
| 1777670781 | 28.89° C | 74% | 1014.6 hPa | 0 mm | - | 201 W/m² | - |
| 1777670477 | 28.89° C | 75% | 1014.7 hPa | 0 mm | - | 124 W/m² | - |
| 1777670174 | 28.33° C | 76% | 1014.5 hPa | 0 mm | - | 123 W/m² | - |
| 1777669872 | 28.89° C | 76% | 1014.4 hPa | 0 mm | - | 246 W/m² | - |
| 1777669569 | 28.33° C | 75% | 1014.7 hPa | 0 mm | - | 284 W/m² | - |
| 1777669265 | 28.33° C | 76% | 1014.6 hPa | 0 mm | - | 189 W/m² | - |
| 1777668961 | 28.33° C | 76% | 1014.5 hPa | 0 mm | - | 89 W/m² | - |
| 1777668659 | 28.89° C | 74% | 1014.5 hPa | 0 mm | - | 61 W/m² | - |
| 1777668355 | 29.44° C | 74% | 1014.6 hPa | 0 mm | - | 137 W/m² | - |
| 1777668051 | 28.89° C | 76% | 1014.6 hPa | 0 mm | - | 481 W/m² | - |
| 1777667748 | 28.89° C | 77% | 1014.2 hPa | 0 mm | - | 459 W/m² | - |
| 1777667446 | 28.89° C | 76% | 1014.4 hPa | 0 mm | - | 284 W/m² | - |
| 1777667143 | 28.89° C | 76% | 1014.3 hPa | 0 mm | - | 164 W/m² | - |
* Rain latest hour (hover to see other rain measurements)
** Current wind speed in m/s (hover to see current wind gust speed)